Location: Columbia
(38.9520°N, 92.3340°W)
Time: 02:33:56
(UTC-05:00)

SJ-11-01 - Visible Passes

Search period start: 02 July 2016 00:00
Search period end: 12 July 2016 00:00
Orbit: 686 x 701 km, 98.2° (Epoch: 01 July)

Date Brightness Start Highest point End Pass type
(mag) Time Alt. Az. Time Alt. Az. Time Alt. Az.
02 Jul 5.7 22:01:00 10° SSW 22:05:17 34° W 22:09:37 10° NNW visible
03 Jul 6.9 22:43:21 10° WSW 22:45:37 13° W 22:47:54 10° WNW visible
04 Jul 5.0 21:43:06 10° S 21:47:42 53° W 21:52:21 10° NNW visible
05 Jul 6.5 22:24:26 10° SW 22:27:55 20° W 22:31:27 10° NW visible
06 Jul 4.4 21:25:26 10° S 21:30:09 82° WSW 21:34:56 10° NNW visible
07 Jul 5.9 22:06:07 10° SSW 22:10:17 31° W 22:14:29 10° NW visible
08 Jul 4.4 21:07:59 10° SSE 21:12:39 66° ENE 21:17:23 10° N visible
08 Jul 7.0 22:48:57 10° WSW 22:50:39 12° W 22:52:19 10° WNW visible
09 Jul 5.2 21:48:08 10° S 21:52:41 47° W 21:57:16 10° NNW visible
10 Jul 6.7 22:29:42 10° SW 22:32:56 18° W 22:36:12 10° NW visible
11 Jul 4.5 21:30:24 10° S 21:35:07 73° WSW 21:39:53 10° NNW visible
